Location: STAR School
(35.3054°N, 111.2976°W)
Time: 10:47:23
(UTC-07:00)

PicSat - Visible Passes

Search period start: 24 April 2019 00:00
Search period end: 04 May 2019 00:00
Orbit: 486 x 502 km, 97.5° (Epoch: 24 April)

Date Brightness Start Highest point End Pass type
(mag) Time Alt. Az. Time Alt. Az. Time Alt. Az.
24 Apr ? 21:33:55 13° NNE 21:33:55 13° NNE 21:34:29 10° NNE visible
25 Apr ? 21:12:09 10° NNE 21:12:09 10° NNE 21:12:13 10° NNE visible
26 Apr ? 22:24:56 13° NNW 22:24:56 13° NNW 22:25:23 10° NNW visible
27 Apr ? 22:03:09 16° N 22:03:09 16° N 22:03:59 10° N visible
28 Apr ? 21:41:22 16° NNE 21:41:22 16° NNE 21:42:19 10° N visible
29 Apr ? 21:19:36 13° NNE 21:19:36 13° NNE 21:20:14 10° NNE visible
30 Apr ? 22:32:22 14° NNW 22:32:22 14° NNW 22:32:56 10° NNW visible
01 May ? 22:10:34 19° NNW 22:10:34 19° NNW 22:11:39 10° NNW visible
02 May ? 21:48:47 20° N 21:48:47 20° N 21:50:03 10° N visible
03 May ? 21:27:00 16° NNE 21:27:00 16° NNE 21:28:07 10° NNE visible
